SP8EBC-11 Weather Reports


time (UTC)temp
C
wind
direction
speed
KPH
gust
KPH
rain 1hr
cm
rain 24hr
cm
rain mn
cm
humidity
%
barometer
mb
20260506171506 19 259 12.9 19.3 0.00 0.00 0.00 61 989.1
20260506171306 19 258 16.1 20.9 0.00 0.00 0.00 61 989.1
20260506171108 19 259 12.9 19.3 0.00 0.00 0.00 61 989.1
20260506170906 19 261 12.9 16.1 0.00 0.00 0.00 61 989.1
20260506170705 20 259 14.5 17.7 0.00 0.00 0.00 61 989.0
20260506170505 20 253 12.9 17.7 0.00 0.00 0.00 61 988.9
20260506170305 20 252 11.3 14.5 0.00 0.00 0.00 61 988.9
20260506170105 20 257 11.3 14.5 0.00 0.00 0.00 61 988.9
20260506165905 20 252 11.3 16.1 0.00 0.00 0.00 61 988.9
20260506165705 20 252 11.3 16.1 0.00 0.00 0.00 61 988.9
20260506165505 20 253 11.3 16.1 0.00 0.00 0.00 61 988.8
20260506165306 20 247 12.9 17.7 0.00 0.00 0.00 61 988.8
20260506165105 20 242 17.7 25.7 0.00 0.00 0.00 61 988.8
20260506164905 20 244 19.3 25.7 0.00 0.00 0.00 61 988.7
20260506164705 20 242 16.1 22.5 0.00 0.00 0.00 61 988.5
20260506164505 20 242 14.5 17.7 0.00 0.00 0.00 61 988.4
20260506164305 20 242 12.9 16.1 0.00 0.00 0.00 61 988.4
20260506164105 20 240 14.5 19.3 0.00 0.00 0.00 61 988.5
20260506163905 20 233 16.1 22.5 0.00 0.00 0.00 61 988.5
20260506163705 20 231 17.7 20.9 0.00 0.00 0.00 61 988.6
20260506163505 20 232 17.7 20.9 0.00 0.00 0.00 61 988.6
20260506163056 20 229 12.9 19.3 0.00 0.00 0.00 61 988.4
20260506162856 20 233 11.3 12.9 0.00 0.00 0.00 61 988.3
20260506162656 20 231 12.9 17.7 0.00 0.00 0.00 61 988.3
20260506162456 20 236 11.3 17.7 0.00 0.00 0.00 61 988.4
20260506162256 20 231 11.3 14.5 0.00 0.00 0.00 61 988.5
20260506162056 20 232 12.9 16.1 0.00 0.00 0.00 61 988.5
20260506161856 21 235 12.9 19.3 0.00 0.00 0.00 61 988.5
20260506161655 21 241 12.9 17.7 0.00 0.00 0.00 61 988.5
20260506161455 21 232 11.3 17.7 0.00 0.00 0.00 61 988.5
20260506161255 21 232 11.3 16.1 0.00 0.00 0.00 61 988.5
20260506161055 21 232 12.9 17.7 0.00 0.00 0.00 61 988.5
20260506160855 21 233 14.5 19.3 0.00 0.00 0.00 61 988.4
20260506160655 21 236 12.9 16.1 0.00 0.00 0.00 61 988.2
20260506160455 21 236 12.9 16.1 0.00 0.00 0.00 61 988.2
20260506160255 21 238 12.9 17.7 0.00 0.00 0.00 61 988.4
20260506160055 21 238 12.9 16.1 0.00 0.00 0.00 61 988.5
20260506155855 21 242 14.5 19.3 0.00 0.00 0.00 61 988.3
20260506155655 21 242 12.9 17.7 0.00 0.00 0.00 61 988.3
20260506155455 21 238 12.9 16.1 0.00 0.00 0.00 61 988.4
20260506155255 21 242 16.1 19.3 0.00 0.00 0.00 61 988.5
20260506155055 21 240 14.5 17.7 0.00 0.00 0.00 61 988.6
20260506154855 21 232 19.3 25.7 0.00 0.00 0.00 60 988.5
20260506154655 21 236 20.9 25.7 0.00 0.00 0.00 60 988.5
20260506154454 21 239 20.9 29.0 0.00 0.00 0.00 61 988.4
20260506154254 21 230 16.1 29.0 0.00 0.00 0.00 60 988.3
20260506154054 21 229 14.5 20.9 0.00 0.00 0.00 60 988.4
20260506153854 21 230 16.1 19.3 0.00 0.00 0.00 60 988.5
20260506153654 21 231 16.1 19.3 0.00 0.00 0.00 60 988.4
20260506153454 21 226 14.5 19.3 0.00 0.00 0.00 61 988.3
20260506153254 21 232 17.7 24.1 0.00 0.00 0.00 61 988.3
20260506153054 21 228 16.1 22.5 0.00 0.00 0.00 61 988.2
20260506152854 21 232 17.7 22.5 0.00 0.00 0.00 61 988.0
20260506152654 21 236 12.9 19.3 0.00 0.00 0.00 61 988.0
20260506152454 21 237 12.9 19.3 0.00 0.00 0.00 61 988.1
20260506152254 21 232 14.5 19.3 0.00 0.00 0.00 61 988.2
20260506152054 21 233 16.1 20.9 0.00 0.00 0.00 61 988.4
20260506151854 21 233 16.1 20.9 0.00 0.00 0.00 61 988.4
20260506151654 21 235 16.1 20.9 0.00 0.00 0.00 61 988.5
20260506151453 21 230 16.1 19.3 0.00 0.00 0.00 61 988.5
20260506151253 21 233 19.3 24.1 0.00 0.00 0.00 60 988.5
20260506151053 21 233 19.3 24.1 0.00 0.00 0.00 61 988.5
20260506150853 21 236 16.1 22.5 0.00 0.00 0.00 61 988.5
20260506150653 21 233 17.7 20.9 0.00 0.00 0.00 61 988.5
20260506150453 21 228 19.3 22.5 0.00 0.00 0.00 61 988.5
20260506150300 21 231 20.9 25.7 0.00 0.00 0.00 60 988.4
20260506150053 21 229 20.9 29.0 0.00 0.00 0.00 61 988.4
20260506145853 21 224 19.3 24.1 0.00 0.00 0.00 61 988.4
20260506145653 21 225 17.7 22.5 0.00 0.00 0.00 61 988.4
20260506145453 21 226 17.7 24.1 0.00 0.00 0.00 61 988.3
20260506145253 21 230 16.1 22.5 0.00 0.00 0.00 61 988.3
20260506145053 21 218 17.7 24.1 0.00 0.00 0.00 61 988.2
20260506144853 21 207 16.1 24.1 0.00 0.00 0.00 62 988.2
20260506144653 21 200 14.5 20.9 0.00 0.00 0.00 62 988.1
20260506144453 21 198 14.5 20.9 0.00 0.00 0.00 62 988.1
20260506144252 21 215 16.1 20.9 0.00 0.00 0.00 62 988.1
20260506144052 21 218 14.5 19.3 0.00 0.00 0.00 62 988.1
20260506143852 21 213 11.3 16.1 0.00 0.00 0.00 62 988.1
20260506143652 21 220 11.3 16.1 0.00 0.00 0.00 62 988.2
20260506143452 21 231 12.9 16.1 0.00 0.00 0.00 62 988.2
20260506143252 21 236 12.9 16.1 0.00 0.00 0.00 62 988.2
20260506143052 21 243 11.3 14.5 0.00 0.00 0.00 62 988.2
20260506142852 21 242 11.3 14.5 0.00 0.00 0.00 63 988.2
20260506142652 21 237 11.3 14.5 0.00 0.00 0.00 62 988.3
20260506142452 21 236 12.9 16.1 0.00 0.00 0.00 62 988.3
20260506142252 21 242 11.3 16.1 0.00 0.00 0.00 63 988.2
20260506142052 21 231 9.7 12.9 0.00 0.00 0.00 62 988.3
20260506141852 21 225 12.9 17.7 0.00 0.00 0.00 62 988.3
20260506141652 21 218 19.3 25.7 0.00 0.00 0.00 62 988.3
20260506141452 22 219 14.5 25.7 0.00 0.00 0.00 62 988.3
20260506141252 22 225 12.9 19.3 0.00 0.00 0.00 62 988.3
20260506141051 22 221 12.9 19.3 0.00 0.00 0.00 62 988.1
20260506140851 22 226 11.3 17.7 0.00 0.00 0.00 62 988.0
20260506140651 22 224 6.4 8.0 0.00 0.00 0.00 62 987.9
20260506140451 22 223 6.4 9.7 0.00 0.00 0.00 62 987.9
20260506140251 22 225 6.4 9.7 0.00 0.00 0.00 63 987.9
20260506140051 22 195 8.0 9.7 0.00 0.00 0.00 62 987.9
20260506135850 22 204 9.7 12.9 0.00 0.00 0.00 62 988.0
20260506135642 22 215 11.3 12.9 0.00 0.00 0.00 62 988.0
20260506135442 22 218 9.7 12.9 0.00 0.00 0.00 62 988.0
20260506135242 22 214 9.7 14.5 0.00 0.00 0.00 63 988.3
20260506135042 22 211 12.9 16.1 0.00 0.00 0.00 63 988.6
20260506134842 22 221 16.1 25.7 0.00 0.00 0.00 63 988.6
20260506134642 22 246 12.9 14.5 0.00 0.00 0.00 63 988.6
20260506134442 22 246 11.3 14.5 0.00 0.00 0.00 63 988.4
20260506134242 22 231 12.9 16.1 0.00 0.00 0.00 63 988.2
20260506134041 22 176 11.3 16.1 0.00 0.00 0.00 63 987.9
20260506133841 22 156 8.0 12.9 0.00 0.00 0.00 63 987.9
20260506133641 22 201 8.0 16.1 0.00 0.00 0.00 63 987.8
20260506133441 22 267 8.0 16.1 0.00 0.00 0.00 63 987.7
20260506133241 22 274 6.4 9.7 0.00 0.00 0.00 64 987.6
20260506133041 22 267 4.8 9.7 0.00 0.00 0.00 64 987.6
20260506132841 22 211 1.6 4.8 0.00 0.00 0.00 64 987.7
20260506132641 22 226 3.2 4.8 0.00 0.00 0.00 64 987.8
20260506132441 22 240 4.8 8.0 0.00 0.00 0.00 64 987.9
20260506132241 22 244 6.4 9.7 0.00 0.00 0.00 64 987.7
20260506132041 22 253 6.4 9.7 0.00 0.00 0.00 64 987.5
20260506131841 22 260 4.8 8.0 0.00 0.00 0.00 64 987.4
20260506131641 22 261 3.2 8.0 0.00 0.00 0.00 64 987.3
20260506131441 22 272 1.6 1.6 0.00 0.00 0.00 65 987.3
20260506131241 21 273 3.2 8.0 0.00 0.00 0.00 65 987.4
20260506131041 21 275 6.4 9.7 0.00 0.00 0.00 65 987.4
20260506130841 21 277 6.4 11.3 0.00 0.00 0.00 65 987.4
20260506130641 21 249 6.4 9.7 0.00 0.00 0.00 65 987.5
20260506130441 21 317 8.0 11.3 0.00 0.00 0.00 65 987.6
20260506130240 21 312 9.7 12.9 0.00 0.00 0.00 65 987.7
20260506130041 21 290 9.7 11.3 0.00 0.00 0.00 65 987.8
20260506125840 21 283 9.7 12.9 0.00 0.00 0.00 65 987.7
20260506125641 21 291 9.7 12.9 0.00 0.00 0.00 65 987.7
20260506125441 21 279 8.0 12.9 0.00 0.00 0.00 65 987.7
20260506125240 21 260 4.8 8.0 0.00 0.00 0.00 65 987.8
20260506125041 21 249 4.8 6.4 0.00 0.00 0.00 65 987.9
20260506124840 21 218 3.2 6.4 0.00 0.00 0.00 65 988.0
20260506124641 21 209 4.8 8.0 0.00 0.00 0.00 65 987.9
20260506124440 21 252 3.2 4.8 0.00 0.00 0.00 65 987.9
20260506124241 21 62 1.6 1.6 0.00 0.00 0.00 65 988.0
20260506124040 21 65 1.6 1.6 0.00 0.00 0.00 65 987.9
20260506123840 21 63 1.6 1.6 0.00 0.00 0.00 65 987.8
20260506123640 21 62 1.6 3.2 0.00 0.00 0.00 66 987.8
20260506123440 21 62 3.2 6.4 0.00 0.00 0.00 66 987.8
20260506123240 21 38 3.2 6.4 0.00 0.00 0.00 66 987.8
20260506123040 21 30 3.2 4.8 0.00 0.00 0.00 66 988.0
20260506122840 21 6 3.2 8.0 0.00 0.00 0.00 66 988.2
20260506122640 21 349 4.8 8.0 0.00 0.00 0.00 66 988.2
20260506122440 21 20 3.2 4.8 0.00 0.00 0.00 66 988.2
20260506122240 21 34 3.2 3.2 0.00 0.00 0.00 66 988.2
20260506122040 21 72 3.2 8.0 0.00 0.00 0.00 66 988.1
20260506121840 21 88 6.4 9.7 0.00 0.00 0.00 66 987.9
20260506121640 21 63 4.8 8.0 0.00 0.00 0.00 66 987.6
20260506121440 21 8 3.2 6.4 0.00 0.00 0.00 66 987.6
20260506121240 21 9 3.2 4.8 0.00 0.00 0.00 66 987.6
20260506121040 21 33 3.2 6.4 0.00 0.00 0.00 66 987.7
20260506120839 21 66 3.2 6.4 0.00 0.00 0.00 66 987.8
20260506120639 21 54 4.8 6.4 0.00 0.00 0.00 67 987.8
20260506120439 21 85 6.4 9.7 0.00 0.00 0.00 67 987.7
20260506120239 21 82 6.4 9.7 0.00 0.00 0.00 67 987.7
20260506120039 20 51 4.8 8.0 0.00 0.00 0.00 67 987.8
20260506115839 20 55 6.4 8.0 0.00 0.00 0.00 67 987.9
20260506115639 20 48 8.0 14.5 0.00 0.00 0.00 67 987.9
20260506115439 20 33 8.0 11.3 0.00 0.00 0.00 67 987.9
20260506115239 20 33 6.4 11.3 0.00 0.00 0.00 68 988.0
20260506115039 20 44 6.4 12.9 0.00 0.00 0.00 68 988.1
20260506114839 20 58 9.7 16.1 0.00 0.00 0.00 68 988.1
20260506114639 20 65 9.7 12.9 0.00 0.00 0.00 68 988.0
20260506114439 20 65 8.0 11.3 0.00 0.00 0.00 68 987.9
20260506114239 20 79 8.0 12.9 0.00 0.00 0.00 68 988.0
20260506114039 20 81 9.7 12.9 0.00 0.00 0.00 68 988.0
20260506113839 20 75 9.7 14.5 0.00 0.00 0.00 68 987.9
20260506113638 20 72 8.0 14.5 0.00 0.00 0.00 69 987.9
20260506113438 20 68 8.0 12.9 0.00 0.00 0.00 69 988.0
20260506113238 20 72 9.7 14.5 0.00 0.00 0.00 69 988.0
20260506113038 19 84 9.7 14.5 0.00 0.00 0.00 69 988.0
20260506112838 19 90 8.0 11.3 0.00 0.00 0.00 69 988.1
20260506112638 18 76 9.7 14.5 0.00 0.00 0.00 69 988.3
20260506112438 18 76 9.7 12.9 0.00 0.00 0.00 69 988.4
20260506112035 18 76 9.7 11.3 0.00 0.00 0.00 69 988.5
20260506111835 18 71 8.0 9.7 0.00 0.00 0.00 69 988.5
20260506111635 18 87 8.0 11.3 0.00 0.00 0.00 69 988.6
20260506111435 18 95 9.7 14.5 0.00 0.00 0.00 69 988.5
20260506111235 18 87 8.0 14.5 0.00 0.00 0.00 69 988.5
20260506111034 18 83 8.0 11.3 0.00 0.00 0.00 69 988.3
20260506110834 18 83 8.0 11.3 0.00 0.00 0.00 70 988.4
20260506110634 18 97 8.0 11.3 0.00 0.00 0.00 70 988.5
20260506110434 18 101 9.7 12.9 0.00 0.00 0.00 69 988.6
20260506110234 18 82 6.4 12.9 0.00 0.00 0.00 70 988.6
20260506110034 18 90 4.8 8.0 0.00 0.00 0.00 70 988.7
20260506105834 18 87 6.4 9.7 0.00 0.00 0.00 69 988.8
20260506105634 18 77 9.7 12.9 0.00 0.00 0.00 70 988.7
20260506105434 18 64 8.0 12.9 0.00 0.00 0.00 70 988.6
20260506105234 18 71 8.0 11.3 0.00 0.00 0.00 70 988.7
20260506105034 18 79 8.0 11.3 0.00 0.00 0.00 70 988.7
20260506104834 18 97 6.4 11.3 0.00 0.00 0.00 70 988.7
20260506104634 18 83 6.4 9.7 0.00 0.00 0.00 70 988.7
20260506104434 18 66 8.0 11.3 0.00 0.00 0.00 70 988.7
20260506104234 18 93 9.7 14.5 0.00 0.00 0.00 70 988.7
20260506104033 17 103 8.0 14.5 0.00 0.00 0.00 70 988.8
20260506103833 17 98 8.0 12.9 0.00 0.00 0.00 70 989.0
20260506103633 17 107 9.7 12.9 0.00 0.00 0.00 70 989.0
20260506103433 17 102 9.7 12.9 0.00 0.00 0.00 70 988.8
20260506103233 17 90 6.4 11.3 0.00 0.00 0.00 70 988.8
20260506103033 17 85 4.8 8.0 0.00 0.00 0.00 70 988.8
20260506102833 17 79 6.4 9.7 0.00 0.00 0.00 70 988.8
20260506102633 17 90 8.0 9.7 0.00 0.00 0.00 70 988.7
20260506102433 17 87 6.4 9.7 0.00 0.00 0.00 71 988.8
20260506102233 17 91 6.4 9.7 0.00 0.00 0.00 71 988.9
20260506102034 17 104 9.7 17.7 0.00 0.00 0.00 71 988.9
20260506101833 17 95 9.7 17.7 0.00 0.00 0.00 71 988.9
20260506101633 17 79 8.0 11.3 0.00 0.00 0.00 71 988.9
20260506101433 17 88 8.0 11.3 0.00 0.00 0.00 71 988.9
20260506101233 17 99 6.4 9.7 0.00 0.00 0.00 71 988.9
20260506101033 17 95 8.0 11.3 0.00 0.00 0.00 71 989.0
20260506100832 16 89 9.7 11.3 0.00 0.00 0.00 71 989.1
20260506100632 16 88 8.0 9.7 0.00 0.00 0.00 71 989.2
20260506100432 16 84 6.4 8.0 0.00 0.00 0.00 71 989.3
20260506100232 16 87 8.0 9.7 0.00 0.00 0.00 71 989.3
20260506100032 16 93 9.7 14.5 0.00 0.00 0.00 71 989.3
20260506095832 16 90 8.0 14.5 0.00 0.00 0.00 71 989.3
20260506095632 16 72 6.4 9.7 0.00 0.00 0.00 71 989.3
20260506095432 16 77 8.0 11.3 0.00 0.00 0.00 71 989.2
20260506095232 16 77 8.0 11.3 0.00 0.00 0.00 71 989.1
20260506095032 16 94 8.0 9.7 0.00 0.00 0.00 71 989.1
20260506094832 16 102 8.0 11.3 0.00 0.00 0.00 71 989.1
20260506094632 16 92 9.7 11.3 0.00 0.00 0.00 71 989.1
20260506094432 16 91 9.7 12.9 0.00 0.00 0.00 71 989.1
20260506094232 17 95 9.7 14.5 0.00 0.00 0.00 71 989.1
20260506094032 17 99 12.9 16.1 0.00 0.00 0.00 71 989.0
20260506093831 16 100 11.3 14.5 0.00 0.00 0.00 71 989.0
20260506093631 16 100 12.9 17.7 0.00 0.00 0.00 71 989.0
20260506093431 16 85 11.3 16.1 0.00 0.00 0.00 71 988.9
20260506093028 16 82 12.9 16.1 0.00 0.00 0.00 72 989.0
20260506092828 16 91 11.3 14.5 0.00 0.00 0.00 72 989.0
20260506092628 16 85 11.3 14.5 0.00 0.00 0.00 72 989.1
20260506092428 16 81 11.3 16.1 0.00 0.00 0.00 72 989.2
20260506092228 16 85 9.7 12.9 0.00 0.00 0.00 72 989.2
20260506092028 16 88 9.7 12.9 0.00 0.00 0.00 72 989.3
20260506091828 16 92 9.7 12.9 0.00 0.00 0.00 72 989.4
20260506091628 16 85 8.0 11.3 0.00 0.00 0.00 72 989.4
20260506091428 16 92 9.7 12.9 0.00 0.00 0.00 72 989.5
20260506091228 16 97 11.3 17.7 0.00 0.00 0.00 72 989.5
20260506091028 16 94 11.3 16.1 0.00 0.00 0.00 72 989.5
20260506090828 16 92 9.7 14.5 0.00 0.00 0.00 72 989.4
20260506090628 16 106 11.3 16.1 0.00 0.00 0.00 72 989.4
20260506090428 16 96 9.7 16.1 0.00 0.00 0.00 72 989.3
20260506090227 15 82 8.0 11.3 0.00 0.00 0.00 72 989.3
20260506090027 15 86 11.3 12.9 0.00 0.00 0.00 72 989.4
20260506085827 15 106 11.3 16.1 0.00 0.00 0.00 72 989.3
20260506085627 15 100 11.3 16.1 0.00 0.00 0.00 72 989.3
20260506085427 15 104 8.0 12.9 0.00 0.00 0.00 72 989.4
20260506085227 15 111 9.7 12.9 0.00 0.00 0.00 72 989.5
20260506085027 15 98 9.7 14.5 0.00 0.00 0.00 72 989.5
20260506084837 15 100 9.7 14.5 0.00 0.00 0.00 72 989.6
20260506084618 15 118 9.7 14.5 0.00 0.00 0.00 72 989.6
20260506084418 15 115 11.3 14.5 0.00 0.00 0.00 72 989.6
20260506084218 15 123 9.7 14.5 0.00 0.00 0.00 72 989.7
20260506084017 15 120 9.7 12.9 0.00 0.00 0.00 72 989.7
20260506083817 15 102 9.7 16.1 0.00 0.00 0.00 72 989.6
20260506083617 15 97 11.3 16.1 0.00 0.00 0.00 72 989.6
20260506083417 15 99 9.7 16.1 0.00 0.00 0.00 73 989.6
20260506083217 15 102 9.7 19.3 0.00 0.00 0.00 72 989.7
20260506083017 15 98 12.9 19.3 0.00 0.00 0.00 72 989.7
20260506082817 15 93 12.9 19.3 0.00 0.00 0.00 72 989.7
20260506082618 15 104 14.5 19.3 0.00 0.00 0.00 72 989.7
20260506082406 15 91 12.9 19.3 0.00 0.00 0.00 72 989.7
20260506081718 14 104 14.5 19.3 0.00 0.00 0.00 73 989.7
20260506081518 14 108 16.1 19.3 0.00 0.00 0.00 73 989.7
20260506081318 14 110 14.5 19.3 0.00 0.00 0.00 73 989.7
20260506081118 14 103 14.5 20.9 0.00 0.00 0.00 73 989.8
20260506080918 14 104 14.5 17.7 0.00 0.00 0.00 72 989.8
20260506080718 14 103 16.1 22.5 0.00 0.00 0.00 72 989.8
20260506080518 14 95 12.9 22.5 0.00 0.00 0.00 73 989.8
20260506080324 14 90 12.9 19.3 0.00 0.00 0.00 72 989.8
20260506080117 14 97 16.1 19.3 0.00 0.00 0.00 73 989.7
20260506073517 13 90 14.5 22.5 0.00 0.00 0.00 73 989.6
20260506073317 13 84 16.1 22.5 0.00 0.00 0.00 73 989.6
20260506073116 13 78 14.5 20.9 0.00 0.00 0.00 73 989.5
20260506072917 13 73 12.9 22.5 0.00 0.00 0.00 73 989.5
20260506072717 13 86 12.9 17.7 0.00 0.00 0.00 73 989.6
20260506072516 13 90 14.5 19.3 0.00 0.00 0.00 74 989.7
20260506072316 13 91 14.5 20.9 0.00 0.00 0.00 73 989.7
20260506072116 13 95 19.3 22.5 0.00 0.00 0.00 73 989.7
20260506071916 13 95 17.7 22.5 0.00 0.00 0.00 73 989.8
20260506071715 13 90 19.3 22.5 0.00 0.00 0.00 73 989.8
20260506071516 13 86 20.9 22.5 0.00 0.00 0.00 73 989.7
20260506071316 13 84 17.7 25.7 0.00 0.00 0.00 73 989.7
20260506071116 13 87 14.5 20.9 0.00 0.00 0.00 74 989.6
20260506070916 13 94 14.5 19.3 0.00 0.00 0.00 74 989.7
20260506070717 13 96 16.1 20.9 0.00 0.00 0.00 74 989.8
20260506070516 12 85 16.1 20.9 0.00 0.00 0.00 74 989.8
20260506070316 12 90 14.5 19.3 0.00 0.00 0.00 74 989.8
20260506070115 12 97 16.1 20.9 0.00 0.00 0.00 74 989.8
20260506062515 11 83 16.1 25.7 0.00 0.00 0.00 74 990.2
20260506062314 11 76 16.1 19.3 0.00 0.00 0.00 74 990.2
20260506062114 11 76 14.5 19.3 0.00 0.00 0.00 74 990.2
20260506061914 11 82 14.5 22.5 0.00 0.00 0.00 74 990.3
20260506061714 11 82 14.5 24.1 0.00 0.00 0.00 74 990.3
20260506061514 11 80 16.1 25.7 0.00 0.00 0.00 74 990.4
20260506061314 11 84 17.7 25.7 0.00 0.00 0.00 74 990.3
20260506061105 11 90 14.5 22.5 0.00 0.00 0.00 74 990.3
20260506060907 11 82 12.9 19.3 0.00 0.00 0.00 75 990.3
20260506060705 11 80 9.7 19.3 0.00 0.00 0.00 75 990.2
20260506060505 11 81 11.3 17.7 0.00 0.00 0.00 75 990.2
20260506060305 11 80 12.9 20.9 0.00 0.00 0.00 75 990.3
20260506060105 11 84 17.7 24.1 0.00 0.00 0.00 75 990.4
20260506051304 10 69 14.5 19.3 0.00 0.00 0.00 75 990.8
20260506051104 10 73 12.9 19.3 0.00 0.00 0.00 75 990.8
20260506050903 10 69 11.3 19.3 0.00 0.00 0.00 75 990.8
20260506050703 9 66 9.7 17.7 0.00 0.00 0.00 75 990.8
20260506050503 9 62 16.1 25.7 0.00 0.00 0.00 75 990.7
20260506050303 9 61 16.1 25.7 0.00 0.00 0.00 75 990.7
20260506050103 9 68 12.9 29.0 0.00 0.00 0.00 75 990.7
20260506045103 9 73 11.3 16.1 0.00 0.00 0.00 75 990.9
20260506044903 9 74 11.3 16.1 0.00 0.00 0.00 75 990.9
20260506044702 9 64 11.3 16.1 0.00 0.00 0.00 75 990.9
20260506044503 9 68 12.9 20.9 0.00 0.00 0.00 75 990.8
20260506044303 9 72 16.1 20.9 0.00 0.00 0.00 75 990.8
20260506044103 9 72 14.5 20.9 0.00 0.00 0.00 75 990.8
20260506043903 9 69 14.5 19.3 0.00 0.00 0.00 75 990.8
20260506043701 9 65 14.5 19.3 0.00 0.00 0.00 74 990.9
20260506043502 9 64 12.9 17.7 0.00 0.00 0.00 74 991.0
20260506043302 9 66 14.5 25.7 0.00 0.00 0.00 74 991.1
20260506043102 9 66 12.9 22.5 0.00 0.00 0.00 74 991.2
20260506042902 9 65 14.5 19.3 0.00 0.00 0.00 74 991.2
20260506042701 9 64 17.7 22.5 0.00 0.00 0.00 74 991.2
20260506042502 9 64 16.1 20.9 0.00 0.00 0.00 74 991.2
20260506042305 9 61 12.9 17.7 0.00 0.00 0.00 74 991.1
20260506042102 9 56 14.5 22.5 0.00 0.00 0.00 74 991.0
20260506041902 9 61 12.9 22.5 0.00 0.00 0.00 74 991.0
20260506041701 9 61 11.3 16.1 0.00 0.00 0.00 74 991.0
20260506041502 9 60 12.9 19.3 0.00 0.00 0.00 74 991.0
20260506041302 9 62 12.9 19.3 0.00 0.00 0.00 74 991.0
20260506041102 9 62 9.7 16.1 0.00 0.00 0.00 74 991.0
20260506040902 9 61 12.9 16.1 0.00 0.00 0.00 74 991.0
20260506040701 9 65 12.9 17.7 0.00 0.00 0.00 74 991.0
20260506040501 9 62 14.5 20.9 0.00 0.00 0.00 74 990.9
20260506040301 9 62 14.5 20.9 0.00 0.00 0.00 74 990.8
20260506040101 9 60 14.5 19.3 0.00 0.00 0.00 74 990.7
20260506035901 8 64 12.9 17.7 0.00 0.00 0.00 74 990.8
20260506035700 8 66 14.5 19.3 0.00 0.00 0.00 74 990.8
20260506035501 8 63 17.7 24.1 0.00 0.00 0.00 74 990.8
20260506035301 8 64 17.7 24.1 0.00 0.00 0.00 74 990.8
20260506035101 8 57 12.9 20.9 0.00 0.00 0.00 74 990.9
20260506034901 8 55 14.5 20.9 0.00 0.00 0.00 74 991.0
20260506034700 8 56 17.7 22.5 0.00 0.00 0.00 74 991.0
20260506034501 8 58 16.1 20.9 0.00 0.00 0.00 74 991.0
20260506034301 8 64 16.1 22.5 0.00 0.00 0.00 74 990.9
20260506034104 8 60 14.5 22.5 0.00 0.00 0.00 74 990.9
20260506033900 8 56 14.5 22.5 0.00 0.00 0.00 74 991.0
20260506033452 8 58 14.5 19.3 0.00 0.00 0.00 74 991.1
20260506033252 8 57 14.5 17.7 0.00 0.00 0.00 74 991.2
20260506033052 8 57 12.9 17.7 0.00 0.00 0.00 74 991.2
20260506032852 8 59 11.3 16.1 0.00 0.00 0.00 74 991.2
20260506032652 8 61 12.9 17.7 0.00 0.00 0.00 74 991.1
20260506032452 8 65 14.5 20.9 0.00 0.00 0.00 74 991.1
20260506032252 8 65 12.9 20.9 0.00 0.00 0.00 73 991.1
20260506032052 8 62 12.9 17.7 0.00 0.00 0.00 73 991.0
20260506031852 8 55 14.5 20.9 0.00 0.00 0.00 74 991.0
20260506031652 8 59 14.5 20.9 0.00 0.00 0.00 73 991.0
20260506031452 8 60 16.1 20.9 0.00 0.00 0.00 73 991.0
20260506031252 8 59 16.1 20.9 0.00 0.00 0.00 73 991.0
20260506031051 8 60 14.5 19.3 0.00 0.00 0.00 73 991.1
20260506030852 8 57 16.1 20.9 0.00 0.00 0.00 73 991.1
20260506030652 8 56 16.1 22.5 0.00 0.00 0.00 73 991.1
20260506030451 8 57 12.9 19.3 0.00 0.00 0.00 73 991.1
20260506030251 8 60 12.9 17.7 0.00 0.00 0.00 73 991.2
20260506030051 8 59 12.9 17.7 0.00 0.00 0.00 73 991.3
20260506025851 8 59 14.5 19.3 0.00 0.00 0.00 73 991.3
20260506025651 8 56 14.5 20.9 0.00 0.00 0.00 73 991.4
20260506025451 8 61 12.9 17.7 0.00 0.00 0.00 73 991.4
20260506025251 8 62 12.9 17.7 0.00 0.00 0.00 72 991.5
20260506025051 8 60 11.3 14.5 0.00 0.00 0.00 72 991.5
20260506024851 9 61 11.3 17.7 0.00 0.00 0.00 73 991.5
20260506024651 9 63 9.7 14.5 0.00 0.00 0.00 72 991.5
20260506024451 9 55 11.3 12.9 0.00 0.00 0.00 72 991.5
20260506024251 9 54 9.7 12.9 0.00 0.00 0.00 72 991.5
20260506024051 9 55 9.7 12.9 0.00 0.00 0.00 72 991.5
20260506023851 9 59 9.7 12.9 0.00 0.00 0.00 72 991.5
20260506023651 9 53 9.7 11.3 0.00 0.00 0.00 72 991.4
20260506023451 9 53 11.3 17.7 0.00 0.00 0.00 72 991.4
20260506023250 9 56 12.9 17.7 0.00 0.00 0.00 72 991.4
20260506023050 9 57 11.3 14.5 0.00 0.00 0.00 72 991.3
20260506022850 9 55 11.3 16.1 0.00 0.00 0.00 72 991.3
20260506022650 9 50 12.9 17.7 0.00 0.00 0.00 72 991.3
20260506022451 9 53 12.9 16.1 0.00 0.00 0.00 72 991.3
20260506022251 9 59 12.9 16.1 0.00 0.00 0.00 72 991.3
20260506022050 9 59 11.3 14.5 0.00 0.00 0.00 71 991.3
20260506021850 9 57 12.9 16.1 0.00 0.00 0.00 71 991.3
20260506021650 9 60 12.9 17.7 0.00 0.00 0.00 71 991.3
20260506021451 10 59 12.9 17.7 0.00 0.00 0.00 71 991.3
20260506021250 10 60 9.7 12.9 0.00 0.00 0.00 71 991.3
20260506021050 10 62 9.7 12.9 0.00 0.00 0.00 71 991.3
20260506020850 10 64 9.7 11.3 0.00 0.00 0.00 71 991.3
20260506020652 10 57 9.7 12.9 0.00 0.00 0.00 71 991.4
20260506020450 10 61 11.3 19.3 0.00 0.00 0.00 71 991.3
20260506020249 10 61 11.3 19.3 0.00 0.00 0.00 71 991.3
20260506020049 10 58 9.7 16.1 0.00 0.00 0.00 71 991.3
20260506015849 10 58 11.3 14.5 0.00 0.00 0.00 71 991.3
20260506015648 10 63 11.3 16.1 0.00 0.00 0.00 71 991.2
20260506015449 10 65 11.3 17.7 0.00 0.00 0.00 71 991.2
20260506015250 10 68 14.5 20.9 0.00 0.00 0.00 71 991.1
20260506015049 10 66 12.9 16.1 0.00 0.00 0.00 71 991.1
20260506014850 10 65 12.9 16.1 0.00 0.00 0.00 71 991.1
20260506014648 10 69 14.5 22.5 0.00 0.00 0.00 71 991.1
20260506014448 10 67 9.7 14.5 0.00 0.00 0.00 71 991.2
20260506014248 10 63 11.3 14.5 0.00 0.00 0.00 71 991.2
20260506014048 10 61 12.9 16.1 0.00 0.00 0.00 71 991.2
20260506013848 10 61 12.9 17.7 0.00 0.00 0.00 71 991.2
20260506013648 10 61 12.9 17.7 0.00 0.00 0.00 71 991.2
20260506013448 10 60 12.9 17.7 0.00 0.00 0.00 71 991.3
20260506013248 10 63 9.7 17.7 0.00 0.00 0.00 71 991.3
20260506013047 10 60 12.9 16.1 0.00 0.00 0.00 71 991.2
20260506012848 10 60 12.9 16.1 0.00 0.00 0.00 71 991.2
20260506012647 10 58 14.5 22.5 0.00 0.00 0.00 71 991.2
20260506012447 10 59 14.5 22.5 0.00 0.00 0.00 71 991.2
20260506012248 10 59 14.5 17.7 0.00 0.00 0.00 71 991.2
20260506012047 10 63 14.5 19.3 0.00 0.00 0.00 71 991.2
20260506011847 10 61 12.9 17.7 0.00 0.00 0.00 70 991.2
20260506011647 10 61 14.5 17.7 0.00 0.00 0.00 70 991.2
20260506011447 10 63 16.1 24.1 0.00 0.00 0.00 70 991.2
20260506011247 10 64 14.5 19.3 0.00 0.00 0.00 70 991.2
20260506011047 10 59 12.9 17.7 0.00 0.00 0.00 70 991.2
20260506010847 10 58 16.1 22.5 0.00 0.00 0.00 70 991.2
20260506010647 10 63 14.5 22.5 0.00 0.00 0.00 70 991.2
20260506010447 10 65 14.5 17.7 0.00 0.00 0.00 70 991.2
20260506010246 10 63 16.1 19.3 0.00 0.00 0.00 70 991.1
20260506010042 10 58 19.3 29.0 0.00 0.00 0.00 70 991.0
20260506005842 10 59 20.9 29.0 0.00 0.00 0.00 70 991.0
20260506005642 10 60 16.1 20.9 0.00 0.00 0.00 70 991.1
20260506005442 10 55 17.7 22.5 0.00 0.00 0.00 70 991.1
20260506005242 10 49 19.3 27.4 0.00 0.00 0.00 70 991.1
20260506005042 10 55 16.1 27.4 0.00 0.00 0.00 70 991.1
20260506004842 10 58 14.5 19.3 0.00 0.00 0.00 70 991.1
20260506004643 10 58 16.1 22.5 0.00 0.00 0.00 70 991.0
20260506004442 10 53 19.3 25.7 0.00 0.00 0.00 70 991.0
20260506004242 10 55 19.3 25.7 0.00 0.00 0.00 70 991.0
20260506004042 10 60 17.7 24.1 0.00 0.00 0.00 70 991.0
20260506003842 10 55 17.7 24.1 0.00 0.00 0.00 70 991.0
20260506003642 10 56 19.3 24.1 0.00 0.00 0.00 70 991.0
20260506003442 10 60 19.3 25.7 0.00 0.00 0.00 70 991.0
20260506003242 10 67 17.7 25.7 0.00 0.00 0.00 70 991.0
20260506003042 10 60 16.1 22.5 0.00 0.00 0.00 70 991.0
20260506002841 10 58 17.7 27.4 0.00 0.00 0.00 70 991.0
20260506002641 10 55 19.3 27.4 0.00 0.00 0.00 70 991.1
20260506002441 10 57 16.1 25.7 0.00 0.00 0.00 70 991.1
20260506002241 10 54 16.1 25.7 0.00 0.00 0.00 70 991.1
20260506002041 10 54 17.7 25.7 0.00 0.00 0.00 70 991.2
20260506001842 10 54 17.7 25.7 0.00 0.00 0.00 69 991.2
20260506001641 10 51 16.1 20.9 0.00 0.00 0.00 70 991.2
20260506001441 10 52 16.1 22.5 0.00 0.00 0.00 70 991.2
20260506001241 10 54 17.7 25.7 0.00 0.00 0.00 70 991.1
20260506001041 10 52 19.3 29.0 0.00 0.00 0.00 69 991.1
20260506000841 10 52 19.3 29.0 0.00 0.00 0.00 70 991.1
20260506000641 10 52 20.9 27.4 0.00 0.00 0.00 70 991.1
20260506000441 10 55 20.9 27.4 0.00 0.00 0.00 70 991.1
20260506000241 10 55 19.3 27.4 0.00 0.00 0.00 70 991.1
20260506000041 10 56 19.3 25.7 0.00 0.00 0.00 70 991.1
20260505235840 10 55 20.9 29.0 0.00 0.00 0.00 70 991.1
20260505235640 10 54 17.7 27.4 0.00 0.00 0.00 70 991.1
20260505235440 10 50 16.1 20.9 0.00 0.00 0.00 70 991.2
20260505235243 10 49 16.1 19.3 0.00 0.00 0.00 70 991.2
20260505235040 10 49 17.7 27.4 0.00 0.00 0.00 70 991.2
20260505234840 10 49 17.7 27.4 0.00 0.00 0.00 70 991.3
20260505234640 10 50 16.1 20.9 0.00 0.00 0.00 70 991.3
20260505234440 10 50 16.1 20.9 0.00 0.00 0.00 70 991.3
20260505234241 10 43 17.7 22.5 0.00 0.00 0.00 70 991.2
20260505234039 10 44 16.1 22.5 0.00 0.00 0.00 69 991.3
20260505233840 10 44 16.1 20.9 0.00 0.00 0.00 69 991.3
20260505233639 10 48 16.1 27.4 0.00 0.00 0.00 70 991.3
20260505233440 10 50 16.1 20.9 0.00 0.00 0.00 69 991.3
20260505233240 10 51 16.1 20.9 0.00 0.00 0.00 69 991.3
20260505233040 10 51 16.1 24.1 0.00 0.00 0.00 69 991.3
20260505232840 10 47 16.1 24.1 0.00 0.00 0.00 69 991.3
20260505232638 10 47 14.5 19.3 0.00 0.00 0.00 69 991.3
20260505232439 10 47 12.9 19.3 0.00 0.00 0.00 69 991.3
20260505232239 10 47 16.1 20.9 0.00 0.00 0.00 69 991.3
20260505232039 10 50 16.1 20.9 0.00 0.00 0.00 69 991.3
20260505231839 11 48 16.1 20.9 0.00 0.00 0.00 69 991.3
20260505231638 11 47 16.1 22.5 0.00 0.00 0.00 69 991.3
20260505231439 11 45 16.1 19.3 0.00 0.00 0.00 69 991.3
20260505231238 11 40 16.1 20.9 0.00 0.00 0.00 69 991.3
20260505231038 11 43 16.1 22.5 0.00 0.00 0.00 69 991.3
20260505230838 11 40 17.7 22.5 0.00 0.00 0.00 69 991.3
20260505230638 11 39 16.1 20.9 0.00 0.00 0.00 69 991.4
20260505230439 11 39 14.5 20.9 0.00 0.00 0.00 69 991.3
20260505230238 11 39 14.5 19.3 0.00 0.00 0.00 69 991.4
20260505230039 11 44 17.7 22.5 0.00 0.00 0.00 69 991.3
20260505225839 11 50 20.9 27.4 0.00 0.00 0.00 69 991.3
20260505225637 11 47 17.7 25.7 0.00 0.00 0.00 69 991.3
20260505225438 11 45 17.7 22.5 0.00 0.00 0.00 69 991.2
20260505225238 11 51 19.3 25.7 0.00 0.00 0.00 69 991.1
20260505225038 11 52 17.7 24.1 0.00 0.00 0.00 69 991.1
20260505224838 11 55 16.1 24.1 0.00 0.00 0.00 69 991.1
20260505224637 11 59 17.7 24.1 0.00 0.00 0.00 69 991.1
20260505224438 11 56 16.1 22.5 0.00 0.00 0.00 69 991.2
20260505224238 11 55 16.1 22.5 0.00 0.00 0.00 69 991.2
20260505224037 11 52 16.1 22.5 0.00 0.00 0.00 69 991.2
20260505223838 11 49 16.1 20.9 0.00 0.00 0.00 69 991.2
20260505223637 11 49 17.7 22.5 0.00 0.00 0.00 69 991.2
20260505223437 11 52 14.5 17.7 0.00 0.00 0.00 69 991.3
20260505223237 11 60 12.9 17.7 0.00 0.00 0.00 69 991.3
20260505223038 11 53 14.5 17.7 0.00 0.00 0.00 69 991.3
20260505222837 11 49 16.1 22.5 0.00 0.00 0.00 69 991.4
20260505222428 11 54 17.7 22.5 0.00 0.00 0.00 69 991.3
20260505222229 11 49 14.5 22.5 0.00 0.00 0.00 69 991.3
20260505222028 11 53 14.5 25.7 0.00 0.00 0.00 69 991.3
20260505221829 11 56 17.7 25.7 0.00 0.00 0.00 69 991.3
20260505221629 11 55 16.1 27.4 0.00 0.00 0.00 69 991.3
20260505221429 11 62 17.7 29.0 0.00 0.00 0.00 69 991.3
20260505221228 11 58 16.1 20.9 0.00 0.00 0.00 69 991.3
20260505221028 11 55 16.1 22.5 0.00 0.00 0.00 69 991.3
20260505220828 11 54 14.5 22.5 0.00 0.00 0.00 69 991.4
20260505220629 11 52 12.9 19.3 0.00 0.00 0.00 69 991.4
20260505220428 11 45 12.9 19.3 0.00 0.00 0.00 69 991.4
20260505220228 11 45 12.9 19.3 0.00 0.00 0.00 69 991.5
20260505220028 11 41 12.9 19.3 0.00 0.00 0.00 69 991.5
20260505215827 11 36 12.9 20.9 0.00 0.00 0.00 69 991.5
20260505215627 11 42 12.9 20.9 0.00 0.00 0.00 69 991.5
20260505215427 11 43 11.3 16.1 0.00 0.00 0.00 69 991.5
20260505215227 11 43 12.9 17.7 0.00 0.00 0.00 69 991.4
20260505215027 11 39 14.5 19.3 0.00 0.00 0.00 69 991.5
20260505214827 11 43 14.5 19.3 0.00 0.00 0.00 69 991.5
20260505214627 11 45 12.9 17.7 0.00 0.00 0.00 69 991.5
20260505214428 11 47 12.9 17.7 0.00 0.00 0.00 69 991.5
20260505214227 11 48 11.3 17.7 0.00 0.00 0.00 69 991.4
20260505214027 11 44 12.9 20.9 0.00 0.00 0.00 69 991.4
20260505213827 11 46 16.1 24.1 0.00 0.00 0.00 69 991.4
20260505213627 12 39 12.9 17.7 0.00 0.00 0.00 69 991.4
20260505213427 12 45 14.5 22.5 0.00 0.00 0.00 69 991.4
20260505213227 12 47 16.1 22.5 0.00 0.00 0.00 69 991.4
20260505213027 12 50 14.5 20.9 0.00 0.00 0.00 69 991.4
20260505212827 12 48 12.9 17.7 0.00 0.00 0.00 69 991.4
20260505212626 12 46 12.9 19.3 0.00 0.00 0.00 69 991.4
20260505212426 12 48 14.5 17.7 0.00 0.00 0.00 69 991.4
20260505212226 12 47 16.1 22.5 0.00 0.00 0.00 69 991.4
20260505212026 12 47 20.9 25.7 0.00 0.00 0.00 69 991.4
20260505211826 12 52 19.3 24.1 0.00 0.00 0.00 69 991.4
20260505211626 12 46 16.1 24.1 0.00 0.00 0.00 69 991.5
20260505211426 12 41 17.7 20.9 0.00 0.00 0.00 70 991.5
20260505211226 12 42 17.7 22.5 0.00 0.00 0.00 70 991.6
20260505211026 12 42 14.5 20.9 0.00 0.00 0.00 70 991.6
20260505210826 12 38 17.7 22.5 0.00 0.00 0.00 70 991.6
20260505210626 12 37 17.7 20.9 0.00 0.00 0.00 70 991.6
20260505210426 12 37 17.7 20.9 0.00 0.00 0.00 70 991.7
20260505210226 12 39 17.7 24.1 0.00 0.00 0.00 70 991.7
20260505210026 12 37 16.1 24.1 0.00 0.00 0.00 70 991.7
20260505205826 12 41 17.7 24.1 0.00 0.00 0.00 70 991.7
20260505205625 12 35 19.3 24.1 0.00 0.00 0.00 70 991.7
20260505205426 12 31 19.3 24.1 0.00 0.00 0.00 70 991.7
20260505205226 12 28 19.3 25.7 0.00 0.00 0.00 70 991.7
20260505205026 12 27 17.7 25.7 0.00 0.00 0.00 70 991.8
20260505204826 12 27 16.1 20.9 0.00 0.00 0.00 70 991.7
20260505204625 12 33 17.7 25.7 0.00 0.00 0.00 71 991.7
20260505204426 12 28 17.7 24.1 0.00 0.00 0.00 71 991.8
20260505204226 12 31 16.1 22.5 0.00 0.00 0.00 71 991.8
20260505204025 13 30 16.1 20.9 0.00 0.00 0.00 71 991.8
20260505203826 13 28 17.7 25.7 0.00 0.00 0.00 71 991.8
20260505203625 13 28 17.7 25.7 0.00 0.00 0.00 71 991.8
20260505203425 13 27 16.1 24.1 0.00 0.00 0.00 71 991.7
20260505203225 13 29 14.5 17.7 0.00 0.00 0.00 71 991.7
20260505203026 13 34 14.5 17.7 0.00 0.00 0.00 70 991.7
20260505202825 13 32 16.1 19.3 0.00 0.00 0.00 70 991.7
20260505202625 13 30 17.7 25.7 0.00 0.00 0.00 70 991.7
20260505202427 13 25 17.7 25.7 0.00 0.00 0.00 70 991.7
20260505202225 13 26 16.1 22.5 0.00 0.00 0.00 70 991.7
20260505202025 13 23 16.1 19.3 0.00 0.00 0.00 70 991.6
20260505201825 13 26 14.5 19.3 0.00 0.00 0.00 70 991.6
20260505201624 13 32 12.9 14.5 0.00 0.00 0.00 70 991.6
20260505201425 13 34 12.9 14.5 0.00 0.00 0.00 70 991.6
20260505201225 14 33 12.9 19.3 0.00 0.00 0.00 70 991.6
20260505201025 14 34 12.9 16.1 0.00 0.00 0.00 70 991.6
20260505200824 14 32 14.5 19.3 0.00 0.00 0.00 70 991.5
20260505200624 14 26 16.1 19.3 0.00 0.00 0.00 70 991.5
20260505200425 14 30 16.1 19.3 0.00 0.00 0.00 70 991.5
20260505200224 14 24 12.9 19.3 0.00 0.00 0.00 70 991.5
20260505200024 14 23 12.9 16.1 0.00 0.00 0.00 70 991.5
20260505195826 14 26 12.9 17.7 0.00 0.00 0.00 70 991.4
20260505195624 14 23 14.5 17.7 0.00 0.00 0.00 70 991.4
20260505195424 14 24 16.1 20.9 0.00 0.00 0.00 70 991.4
20260505195224 14 20 12.9 19.3 0.00 0.00 0.00 70 991.4
20260505195015 15 17 11.3 14.5 0.00 0.00 0.00 70 991.4
20260505194815 15 23 11.3 16.1 0.00 0.00 0.00 69 991.4
20260505194615 15 23 12.9 16.1 0.00 0.00 0.00 69 991.4
20260505194415 15 20 12.9 16.1 0.00 0.00 0.00 70 991.4
20260505194215 15 22 12.9 16.1 0.00 0.00 0.00 69 991.4
20260505194015 15 23 12.9 16.1 0.00 0.00 0.00 69 991.4
20260505193815 15 32 14.5 16.1 0.00 0.00 0.00 69 991.4
20260505193615 15 32 12.9 19.3 0.00 0.00 0.00 69 991.4
20260505193415 15 32 14.5 19.3 0.00 0.00 0.00 69 991.4
20260505193215 15 33 14.5 19.3 0.00 0.00 0.00 69 991.4
20260505193015 15 33 12.9 19.3 0.00 0.00 0.00 69 991.4
20260505192815 15 30 11.3 16.1 0.00 0.00 0.00 69 991.4
20260505192615 15 35 12.9 16.1 0.00 0.00 0.00 69 991.4
20260505192415 15 33 14.5 19.3 0.00 0.00 0.00 69 991.4
20260505192215 15 29 14.5 19.3 0.00 0.00 0.00 69 991.4
20260505192015 15 24 14.5 17.7 0.00 0.00 0.00 69 991.4
20260505191814 15 26 12.9 17.7 0.00 0.00 0.00 69 991.3
20260505191614 15 19 14.5 20.9 0.00 0.00 0.00 69 991.3
20260505191416 15 17 14.5 20.9 0.00 0.00 0.00 69 991.3
20260505191214 16 23 12.9 20.9 0.00 0.00 0.00 69 991.3
20260505191014 16 30 12.9 17.7 0.00 0.00 0.00 68 991.3
20260505190814 16 35 14.5 17.7 0.00 0.00 0.00 68 991.2
20260505190614 16 31 12.9 16.1 0.00 0.00 0.00 68 991.2
20260505190414 16 22 11.3 14.5 0.00 0.00 0.00 68 991.2
20260505190214 16 29 12.9 17.7 0.00 0.00 0.00 68 991.2
20260505190014 16 27 14.5 17.7 0.00 0.00 0.00 67 991.2
20260505185814 16 20 11.3 16.1 0.00 0.00 0.00 67 991.2
20260505185614 16 27 11.3 12.9 0.00 0.00 0.00 67 991.2
20260505185414 16 30 11.3 14.5 0.00 0.00 0.00 67 991.1
20260505185214 16 32 11.3 14.5 0.00 0.00 0.00 67 991.1
20260505185014 16 29 11.3 12.9 0.00 0.00 0.00 67 991.2
20260505184813 16 22 12.9 14.5 0.00 0.00 0.00 66 991.1
20260505184614 16 26 12.9 14.5 0.00 0.00 0.00 66 991.1
20260505184413 16 29 11.3 12.9 0.00 0.00 0.00 66 991.2
20260505184213 16 32 9.7 14.5 0.00 0.00 0.00 66 991.2
20260505184013 16 35 8.0 9.7 0.00 0.00 0.00 66 991.2
20260505183813 16 39 8.0 9.7 0.00 0.00 0.00 66 991.1
20260505183614 16 41 6.4 9.7 0.00 0.00 0.00 66 991.1
20260505183413 16 33 8.0 11.3 0.00 0.00 0.00 66 991.1
20260505183213 17 31 8.0 11.3 0.00 0.00 0.00 66 991.0
20260505183013 17 32 8.0 11.3 0.00 0.00 0.00 66 991.0
20260505182813 17 33 8.0 9.7 0.00 0.00 0.00 66 991.0
20260505182612 17 38 8.0 9.7 0.00 0.00 0.00 65 991.0
20260505182413 17 49 6.4 9.7 0.00 0.00 0.00 65 990.9
20260505182213 17 48 8.0 11.3 0.00 0.00 0.00 65 990.9
20260505182013 17 48 8.0 9.7 0.00 0.00 0.00 65 990.9
20260505181813 17 49 8.0 11.3 0.00 0.00 0.00 65 990.8
20260505181611 17 54 8.0 12.9 0.00 0.00 0.00 65 990.8
20260505181412 17 53 8.0 11.3 0.00 0.00 0.00 65 990.8
20260505181212 17 50 9.7 12.9 0.00 0.00 0.00 65 990.7
20260505181012 17 55 9.7 12.9 0.00 0.00 0.00 65 990.7
20260505180812 17 63 9.7 12.9 0.00 0.00 0.00 65 990.7
20260505180611 17 54 9.7 14.5 0.00 0.00 0.00 65 990.7
20260505180412 17 48 9.7 12.9 0.00 0.00 0.00 65 990.7
20260505180212 17 37 9.7 14.5 0.00 0.00 0.00 65 990.7
20260505180012 17 35 11.3 14.5 0.00 0.00 0.00 65 990.7
20260505175812 17 48 9.7 14.5 0.00 0.00 0.00 65 990.7
20260505175611 17 72 9.7 12.9 0.00 0.00 0.00 65 990.7
20260505175412 17 72 11.3 16.1 0.00 0.00 0.00 65 990.7
20260505175212 17 70 8.0 12.9 0.00 0.00 0.00 65 990.7
20260505175012 17 70 11.3 16.1 0.00 0.00 0.00 65 990.6
20260505174812 17 70 12.9 16.1 0.00 0.00 0.00 65 990.6
20260505174610 17 67 11.3 14.5 0.00 0.00 0.00 65 990.6
20260505174411 17 65 11.3 12.9 0.00 0.00 0.00 65 990.6
20260505174211 17 58 9.7 12.9 0.00 0.00 0.00 65 990.5
20260505174011 17 57 9.7 12.9 0.00 0.00 0.00 65 990.5
20260505173811 18 63 9.7 11.3 0.00 0.00 0.00 65 990.5
20260505173610 18 67 9.7 12.9 0.00 0.00 0.00 64 990.5
20260505173411 18 71 9.7 11.3 0.00 0.00 0.00 64 990.4
20260505173211 18 70 11.3 16.1 0.00 0.00 0.00 64 990.4
20260505173011 18 63 11.3 12.9 0.00 0.00 0.00 64 990.4
20260505172811 18 56 12.9 14.5 0.00 0.00 0.00 64 990.4
20260505172610 18 57 12.9 16.1 0.00 0.00 0.00 64 990.4
20260505172411 18 56 11.3 17.7 0.00 0.00 0.00 64 990.4
20260505172211 18 60 9.7 11.3 0.00 0.00 0.00 64 990.4
20260505172011 18 66 9.7 14.5 0.00 0.00 0.00 64 990.4
20260505171810 18 63 12.9 17.7 0.00 0.00 0.00 64 990.5